User: anonymous   Login
Location: Champseau
(45.8333°N, 1.7667°E)
Time: 13:02:55
(UTC+00:00)
Language:

ITUPSAT 1 - Orbit

View from above orbital plane
View from above orbital plane
View from above satellite
View from above satellite

Ground track
Ground track

The orbit data is extracted from the following two-line orbital elements,

1 35935U 09051E   21339.53815912  .00000201  00000-0  56964-4 0  9999
2 35935  98.5913 186.6816 0007172 302.6821  57.3683 14.55799460647691
Epoch (UTC): 05 December 2021 12:54:56
Eccentricity: 0.0007172
inclination: 98.5913°
perigee height: 701 km
apogee height: 712 km
right ascension of ascending node: 186.6816°
argument of perigee: 302.6821°
revolutions per day: 14.55799460
mean anomaly at epoch: 57.3683°
orbit number at epoch: 64769

The dashed part of the orbit path shows where the satellite is in the earth's shadow,  

DLR